Regional Weather Roundup
Issued by NWS

Home | Current Version | Previous Version | Graphics & Text | Print | Product List | Glossary On
Versions: 1 2 3 4 5 6 7 8 9 10 11 12 13 14 15 16 17 18 19 20 21 22 23 24 25 26 27 28 29 30 31 32 33 34 35 36 37 38 39 40 41 42 43 44 45 46 47 48 49 50
000
ASUS43 KFSD 032010
RWRSD

WEATHER ROUNDUP FOR SOUTH DAKOTA
NATIONAL WEATHER SERVICE SIOUX FALLS SD
200 PM CST SAT DEC 03 2016

NOTE: "FAIR" INDICATES FEW OR NO CLOUDS BELOW 12,000 FEET WITH NO
SIGNIFICANT WEATHER AND/OR OBSTRUCTIONS TO VISIBILITY.


SDZ001>005-009-010-012>017-032100-
NORTHWEST AND NORTH CENTRAL SOUTH DAKOTA

CITY           SKY/WX    TMP DP  RH WIND       PRES   REMARKS
BUFFALO          N/A     36  28  73 W16       29.77F
FAITH            N/A     26  23  88 W8        29.86F WCI  18
MOBRIDGE       SUNNY     37  29  72 S12       29.87F
$$

SDZ012>016-024>037-041>051-057-063-072>074-032100-
SOUTHWEST AND SOUTH CENTRAL SOUTH DAKOTA

CITY           SKY/WX    TMP DP  RH WIND       PRES   REMARKS
RAPID CTY ARPT CLOUDY    41  22  46 N14       29.86F
PIERRE         SUNNY     38  28  67 S9        29.91F
CUSTER         CLOUDY    31  17  56 W14G28    29.83F WCI  21
ELLSWORTH AFB  CLOUDY    41  23  49 N14       29.85F
PHILIP         SUNNY     40  23  50 W10       29.89F
PINE RIDGE     SUNNY     37  20  50 W13       29.90R
SPEARFISH      FAIR      36  21  55 W17G24    29.86S
WINNER         FAIR      47  27  45 SW15      29.93F
$$

SDZ004>011-016>023-039-040-032100-
NORTHEAST SOUTH DAKOTA

CITY           SKY/WX    TMP DP  RH WIND       PRES   REMARKS
ABERDEEN       MIX PCPN  34  29  82 S16       29.99F WCI  24
WATERTOWN      MOSUNNY   34  29  82 S17       30.04F WCI  23
BROOKINGS      MOSUNNY   34  29  82 S17       30.08  WCI  23
SISSETON         N/A     32  27  81 S17       30.06F WCI  21
$$

SDZ017-020-022-023-036>040-048>070-032100-
SOUTHEAST SOUTH DAKOTA

CITY           SKY/WX    TMP DP  RH WIND       PRES   REMARKS
SIOUX FALLS    LGT SNOW  35  32  88 S15       30.13F FOG     WCI  25
HURON          PTSUNNY   34  33  96 SE15G23   30.00F WCI  24
CHAMBERLAIN    SUNNY     40  35  81 SE15      29.96F
MITCHELL       CLOUDY    35  34  96 SE18      30.05F WCI  24
YANKTON        CLOUDY    37  30  75 S16       30.11F
$$

ABBREVIATIONS USED IN REMARKS
   TC - TEMPERATURE IN CELSIUS
  WCI - WIND CHILL INDEX
   HX - HEAT INDEX
  VSB - VISIBILITY




USA.gov is the U.S. government's official web portal to all federal, state and local government web resources and services.